owner,sensor,date,latitude,longitude,vertical_datum,direction_of_sea_water_velocity,sea_water_speed,upward_sea_water_velocity,qcFlag 
TABS,ioos:station:wmo:42045:1,2004-05-01T00:00:00Z,26.2168,-96.4998,2.0,90.16135031,35.51014081,-99999.0,'11111222,11111222,99999999' 
TABS,ioos:station:wmo:42045:1,2004-05-01T00:30:00Z,26.2168,-96.4998,2.0,98.55879004,29.29625403,-99999.0,'11111222,11111222,99999999' 
TABS,ioos:station:wmo:42045:1,2004-05-01T01:00:00Z,26.2168,-96.4998,2.0,117.1223913,21.60591123,-99999.0,'11111222,11111222,99999999' 
TABS,ioos:station:wmo:42045:1,2004-05-01T01:30:00Z,26.2168,-96.4998,2.0,129.0629689,13.53591519,-99999.0,'11111222,11111222,99999999' 
TABS,ioos:station:wmo:42045:1,2004-05-01T02:00:00Z,26.2168,-96.4998,2.0,147.3979794,14.45809462,-99999.0,'11111222,11111222,99999999' 
TABS,ioos:station:wmo:42045:1,2004-05-01T02:30:00Z,26.2168,-96.4998,2.0,144.1324077,18.17678189,-99999.0,'11111222,11111222,99999999' 
TABS,ioos:station:wmo:42045:1,2004-05-01T03:00:00Z,26.2168,-96.4998,2.0,153.9178598,14.85249137,-99999.0,'11111222,11111222,99999999' 
TABS,ioos:station:wmo:42045:1,2004-05-01T03:30:00Z,26.2168,-96.4998,2.0,163.7625578,16.98760136,-99999.0,'11111222,11111222,99999999' 
TABS,ioos:station:wmo:42045:1,2004-05-01T04:00:00Z,26.2168,-96.4998,2.0,164.0544309,15.14262857,-99999.0,'11111222,11111222,99999999' 
TABS,ioos:station:wmo:42045:1,2004-05-01T04:30:00Z,26.2168,-96.4998,2.0,167.2701668,10.21097938,-99999.0,'11111222,11111222,99999999' 
TABS,ioos:station:wmo:42045:1,2004-05-01T05:00:00Z,26.2168,-96.4998,2.0,173.9178726,11.5148122,-99999.0,'11111222,11111222,99999999' 
TABS,ioos:station:wmo:42045:1,2004-05-01T05:30:00Z,26.2168,-96.4998,2.0,185.2318815,12.39163024,-99999.0,'11111222,11111222,99999999' 
TABS,ioos:station:wmo:42045:1,2004-05-01T06:00:00Z,26.2168,-96.4998,2.0,202.8162228,14.57008579,-99999.0,'11111222,11111222,99999999' 
TABS,ioos:station:wmo:42045:1,2004-05-01T06:30:00Z,26.2168,-96.4998,2.0,213.8933385,11.70979505,-99999.0,'11111222,11111222,99999999' 
TABS,ioos:station:wmo:42045:1,2004-05-01T07:00:00Z,26.2168,-96.4998,2.0,212.6112501,10.01966067,-99999.0,'11111222,11111222,99999999' 
TABS,ioos:station:wmo:42045:1,2004-05-01T07:30:00Z,26.2168,-96.4998,2.0,209.2211776,15.34249654,-99999.0,'11111222,11111222,99999999' 
TABS,ioos:station:wmo:42045:1,2004-05-01T08:00:00Z,26.2168,-96.4998,2.0,224.523693,16.17209016,-99999.0,'11111222,11111222,99999999' 
TABS,ioos:station:wmo:42045:1,2004-05-01T08:30:00Z,26.2168,-96.4998,2.0,230.7982015,18.33718081,-99999.0,'11111222,11111222,99999999' 
TABS,ioos:station:wmo:42045:1,2004-05-01T09:00:00Z,26.2168,-96.4998,2.0,247.5326724,19.0239139,-99999.0,'11111222,11111222,99999999' 
TABS,ioos:station:wmo:42045:1,2004-05-01T09:30:00Z,26.2168,-96.4998,2.0,256.4172788,17.75659033,-99999.0,'11111222,11111222,99999999' 
TABS,ioos:station:wmo:42045:1,2004-05-01T10:00:00Z,26.2168,-96.4998,2.0,266.1761869,16.34638186,-99999.0,'11111222,11111222,99999999' 
TABS,ioos:station:wmo:42045:1,2004-05-01T10:30:00Z,26.2168,-96.4998,2.0,277.2528857,14.4959753,-99999.0,'11111222,11111222,99999999' 
TABS,ioos:station:wmo:42045:1,2004-05-01T11:00:00Z,26.2168,-96.4998,2.0,297.3323275,14.70122784,-99999.0,'11111222,11111222,99999999' 
TABS,ioos:station:wmo:42045:1,2004-05-01T11:30:00Z,26.2168,-96.4998,2.0,290.766596,15.31493715,-99999.0,'11111222,11111222,99999999' 
TABS,ioos:station:wmo:42045:1,2004-05-01T12:00:00Z,26.2168,-96.4998,2.0,301.3411787,19.28371852,-99999.0,'11111222,11111222,99999999' 
TABS,ioos:station:wmo:42045:1,2004-05-01T12:30:00Z,26.2168,-96.4998,2.0,311.9088546,21.10957366,-99999.0,'11111222,11111222,99999999' 
TABS,ioos:station:wmo:42045:1,2004-05-01T13:00:00Z,26.2168,-96.4998,2.0,317.4297695,26.35634648,-99999.0,'11111222,11111222,99999999' 
TABS,ioos:station:wmo:42045:1,2004-05-01T13:30:00Z,26.2168,-96.4998,2.0,324.4781485,30.0163039,-99999.0,'11111222,11111222,99999999' 
TABS,ioos:station:wmo:42045:1,2004-05-01T14:00:00Z,26.2168,-96.4998,2.0,325.2320177,34.1950011,-99999.0,'11111222,11111222,99999999' 
TABS,ioos:station:wmo:42045:1,2004-05-01T14:30:00Z,26.2168,-96.4998,2.0,331.931185,39.69941183,-99999.0,'11111222,11111222,99999999' 
TABS,ioos:station:wmo:42045:1,2004-05-01T15:00:00Z,26.2168,-96.4998,2.0,329.5517304,46.15556521,-99999.0,'11111222,11111222,99999999' 
TABS,ioos:station:wmo:42045:1,2004-05-01T16:00:00Z,26.2168,-96.4998,2.0,346.7484125,46.41596708,-99999.0,'11111222,11111222,99999999' 
TABS,ioos:station:wmo:42045:1,2004-05-01T16:30:00Z,26.2168,-96.4998,2.0,355.4501191,44.11904804,-99999.0,'11111222,11111222,99999999' 
TABS,ioos:station:wmo:42045:1,2004-05-01T17:00:00Z,26.2168,-96.4998,2.0,7.075805382,46.03054747,-99999.0,'11111222,11111222,99999999' 
TABS,ioos:station:wmo:42045:1,2004-05-01T17:30:00Z,26.2168,-96.4998,2.0,16.45844999,50.33230076,-99999.0,'11111222,11111222,99999999' 
TABS,ioos:station:wmo:42045:1,2004-05-01T18:00:00Z,26.2168,-96.4998,2.0,27.46309868,51.36878916,-99999.0,'11111222,11111222,99999999' 
TABS,ioos:station:wmo:42045:1,2004-05-01T19:00:00Z,26.2168,-96.4998,2.0,40.50409469,56.19700081,-99999.0,'11111222,11111222,99999999' 
TABS,ioos:station:wmo:42045:1,2004-05-01T19:30:00Z,26.2168,-96.4998,2.0,48.48324623,57.4949963,-99999.0,'11111222,11111222,99999999' 
TABS,ioos:station:wmo:42045:1,2004-05-01T20:00:00Z,26.2168,-96.4998,2.0,53.18753957,57.94402903,-99999.0,'11111222,11111222,99999999' 
TABS,ioos:station:wmo:42045:1,2004-05-01T20:30:00Z,26.2168,-96.4998,2.0,79.01373975,46.17628071,-99999.0,'11111222,11111222,99999999' 
TABS,ioos:station:wmo:42045:1,2004-05-01T21:00:00Z,26.2168,-96.4998,2.0,89.73538903,41.14043874,-99999.0,'11111222,11111222,99999999' 
TABS,ioos:station:wmo:42045:1,2004-05-01T22:00:00Z,26.2168,-96.4998,2.0,105.7486715,34.41177124,-99999.0,'11111222,11111222,99999999' 
TABS,ioos:station:wmo:42045:1,2004-05-01T22:30:00Z,26.2168,-96.4998,2.0,118.5001156,34.83097041,-99999.0,'11111222,11111222,99999999' 
TABS,ioos:station:wmo:42045:1,2004-05-01T23:00:00Z,26.2168,-96.4998,2.0,134.62288,35.4621728,-99999.0,'11111222,11111222,99999999' 
TABS,ioos:station:wmo:42045:1,2004-05-01T23:30:00Z,26.2168,-96.4998,2.0,147.7507004,35.62579122,-99999.0,'11111222,11111222,99999999' 
TABS,ioos:station:wmo:42045:1,2004-05-02T00:00:00Z,26.2168,-96.4998,2.0,158.8747751,35.23814552,-99999.0,'11111222,11111222,99999999' 
TABS,ioos:station:wmo:42045:1,2004-05-02T00:30:00Z,26.2168,-96.4998,2.0,176.346714,42.37610294,-99999.0,'11111222,11111222,99999999' 
TABS,ioos:station:wmo:42045:1,2004-05-02T01:00:00Z,26.2168,-96.4998,2.0,182.4728154,51.21770202,-99999.0,'11111222,11111222,99999999' 
TABS,ioos:station:wmo:42045:1,2004-05-02T01:30:00Z,26.2168,-96.4998,2.0,179.1914025,55.28550262,-99999.0,'11111222,11111222,99999999' 
TABS,ioos:station:wmo:42045:1,2004-05-02T02:00:00Z,26.2168,-96.4998,2.0,180.3794592,64.8914247,-99999.0,'11111222,11111222,99999999' 
TABS,ioos:station:wmo:42045:1,2004-05-02T02:30:00Z,26.2168,-96.4998,2.0,185.246465,77.42439151,-99999.0,'11111222,11111222,99999999' 
TABS,ioos:station:wmo:42045:1,2004-05-02T03:00:00Z,26.2168,-96.4998,2.0,191.2489981,81.45492128,-99999.0,'11111222,11111222,99999999' 
TABS,ioos:station:wmo:42045:1,2004-05-02T03:30:00Z,26.2168,-96.4998,2.0,195.6374037,86.43950254,-99999.0,'11111222,11111222,99999999' 
TABS,ioos:station:wmo:42045:1,2004-05-02T04:00:00Z,26.2168,-96.4998,2.0,196.6758094,92.31243145,-99999.0,'11111222,11111222,99999999' 
TABS,ioos:station:wmo:42045:1,2004-05-02T04:30:00Z,26.2168,-96.4998,2.0,199.0541276,88.92211986,-99999.0,'11111222,11111222,99999999' 
TABS,ioos:station:wmo:42045:1,2004-05-02T05:00:00Z,26.2168,-96.4998,2.0,199.4179357,97.48523837,-99999.0,'11111222,11111222,99999999' 
TABS,ioos:station:wmo:42045:1,2004-05-02T05:30:00Z,26.2168,-96.4998,2.0,202.7154724,92.86320692,-99999.0,'11111222,11111222,99999999' 
TABS,ioos:station:wmo:42045:1,2004-05-02T06:00:00Z,26.2168,-96.4998,2.0,206.4336075,97.67170522,-99999.0,'11111222,11111222,99999999' 
TABS,ioos:station:wmo:42045:1,2004-05-02T06:30:00Z,26.2168,-96.4998,2.0,203.9462267,47.27959602,-99999.0,'11111222,11111222,99999999' 
TABS,ioos:station:wmo:42045:1,2004-05-02T07:00:00Z,26.2168,-96.4998,2.0,210.4189174,47.6375986,-99999.0,'11111222,11111222,99999999' 
TABS,ioos:station:wmo:42045:1,2004-05-02T07:30:00Z,26.2168,-96.4998,2.0,208.0060307,41.25061575,-99999.0,'11111222,11111222,99999999' 
TABS,ioos:station:wmo:42045:1,2004-05-02T08:00:00Z,26.2168,-96.4998,2.0,210.1449088,37.81415211,-99999.0,'11111222,11111222,99999999' 
TABS,ioos:station:wmo:42045:1,2004-05-02T08:30:00Z,26.2168,-96.4998,2.0,207.8270307,43.85098973,-99999.0,'11111222,11111222,99999999' 
TABS,ioos:station:wmo:42045:1,2004-05-02T09:00:00Z,26.2168,-96.4998,2.0,214.6400285,40.97301795,-99999.0,'11111222,11111222,99999999' 
TABS,ioos:station:wmo:42045:1,2004-05-02T09:30:00Z,26.2168,-96.4998,2.0,206.6296253,35.56244789,-99999.0,'11111222,11111222,99999999' 
TABS,ioos:station:wmo:42045:1,2004-05-02T10:00:00Z,26.2168,-96.4998,2.0,206.5870322,34.54278072,-99999.0,'11111222,11111222,99999999' 
TABS,ioos:station:wmo:42045:1,2004-05-02T10:30:00Z,26.2168,-96.4998,2.0,221.5612477,40.32110366,-99999.0,'11111222,11111222,99999999' 
TABS,ioos:station:wmo:42045:1,2004-05-02T11:00:00Z,26.2168,-96.4998,2.0,225.1556612,46.75407362,-99999.0,'11111222,11111222,99999999' 
TABS,ioos:station:wmo:42045:1,2004-05-02T11:30:00Z,26.2168,-96.4998,2.0,218.5995975,32.85897746,-99999.0,'11111222,11111222,99999999' 
TABS,ioos:station:wmo:42045:1,2004-05-02T12:00:00Z,26.2168,-96.4998,2.0,218.2981471,37.14354453,-99999.0,'11111222,11111222,99999999' 
TABS,ioos:station:wmo:42045:1,2004-05-02T12:30:00Z,26.2168,-96.4998,2.0,239.4632732,45.52385089,-99999.0,'11111222,11111222,99999999' 
TABS,ioos:station:wmo:42045:1,2004-05-02T13:00:00Z,26.2168,-96.4998,2.0,227.1722846,62.29846387,-99999.0,'11111222,11111222,99999999' 
TABS,ioos:station:wmo:42045:1,2004-05-02T13:30:00Z,26.2168,-96.4998,2.0,257.7648449,60.02327882,-99999.0,'11111222,11111222,99999999' 
TABS,ioos:station:wmo:42045:1,2004-05-02T14:00:00Z,26.2168,-96.4998,2.0,260.9251759,47.10960942,-99999.0,'11111222,11111222,99999999' 
TABS,ioos:station:wmo:42045:1,2004-05-02T14:30:00Z,26.2168,-96.4998,2.0,260.0538361,44.81347119,-99999.0,'11111222,11111222,99999999' 
TABS,ioos:station:wmo:42045:1,2004-05-02T15:00:00Z,26.2168,-96.4998,2.0,260.5692781,38.26715824,-99999.0,'11111222,11111222,99999999' 
TABS,ioos:station:wmo:42045:1,2004-05-02T15:30:00Z,26.2168,-96.4998,2.0,262.4265381,29.82010228,-99999.0,'11111222,11111222,99999999' 
TABS,ioos:station:wmo:42045:1,2004-05-02T16:00:00Z,26.2168,-96.4998,2.0,264.4248922,22.23516359,-99999.0,'11111222,11111222,99999999' 
TABS,ioos:station:wmo:42045:1,2004-05-02T16:30:00Z,26.2168,-96.4998,2.0,261.6886103,17.91817513,-99999.0,'11111222,11111222,99999999' 
TABS,ioos:station:wmo:42045:1,2004-05-02T17:00:00Z,26.2168,-96.4998,2.0,270.5054625,10.21039666,-99999.0,'11111222,11111222,99999999' 
TABS,ioos:station:wmo:42045:1,2004-05-02T17:30:00Z,26.2168,-96.4998,2.0,274.310067,11.84348766,-99999.0,'11111222,11111222,99999999' 
TABS,ioos:station:wmo:42045:1,2004-05-02T18:00:00Z,26.2168,-96.4998,2.0,276.8107298,13.32401216,-99999.0,'11111222,11111222,99999999' 
TABS,ioos:station:wmo:42045:1,2004-05-02T18:30:00Z,26.2168,-96.4998,2.0,273.5101573,7.514093425,-99999.0,'11133222,11111222,99999999' 
TABS,ioos:station:wmo:42045:1,2004-05-02T19:00:00Z,26.2168,-96.4998,2.0,254.2119972,3.491718774,-99999.0,'11133222,11111222,99999999' 
TABS,ioos:station:wmo:42045:1,2004-05-02T19:30:00Z,26.2168,-96.4998,2.0,155.5642746,5.656686309,-99999.0,'11133222,11111222,99999999' 
TABS,ioos:station:wmo:42045:1,2004-05-02T20:00:00Z,26.2168,-96.4998,2.0,165.6062302,5.833095233,-99999.0,'11133222,11111222,99999999' 
TABS,ioos:station:wmo:42045:1,2004-05-02T20:30:00Z,26.2168,-96.4998,2.0,151.2281213,9.640129667,-99999.0,'11133222,11111222,99999999' 
TABS,ioos:station:wmo:42045:1,2004-05-02T21:00:00Z,26.2168,-96.4998,2.0,163.1104285,11.25547867,-99999.0,'11111222,11111222,99999999' 
TABS,ioos:station:wmo:42045:1,2004-05-02T21:30:00Z,26.2168,-96.4998,2.0,152.8956945,13.78373317,-99999.0,'11111222,11111222,99999999' 
TABS,ioos:station:wmo:42045:1,2004-05-02T22:00:00Z,26.2168,-96.4998,2.0,163.2720596,15.39131248,-99999.0,'11111222,11111222,99999999' 
TABS,ioos:station:wmo:42045:1,2004-05-02T22:30:00Z,26.2168,-96.4998,2.0,156.707758,17.70275685,-99999.0,'11111222,11111222,99999999' 
TABS,ioos:station:wmo:42045:1,2004-05-02T23:00:00Z,26.2168,-96.4998,2.0,162.0265218,17.66189401,-99999.0,'11111222,11111222,99999999' 
TABS,ioos:station:wmo:42045:1,2004-05-02T23:30:00Z,26.2168,-96.4998,2.0,158.9195659,24.04945114,-99999.0,'11111222,11111222,99999999' 
TABS,ioos:station:wmo:42045:1,2004-05-03T00:00:00Z,26.2168,-96.4998,2.0,164.6842681,21.61773809,-99999.0,'11111222,11111222,99999999' 
TABS,ioos:station:wmo:42045:1,2004-05-03T00:30:00Z,26.2168,-96.4998,2.0,171.2332439,27.75423932,-99999.0,'11111222,11111222,99999999' 
TABS,ioos:station:wmo:42045:1,2004-05-03T01:00:00Z,26.2168,-96.4998,2.0,170.0072847,23.62843414,-99999.0,'11111222,11111222,99999999' 
TABS,ioos:station:wmo:42045:1,2004-05-03T01:30:00Z,26.2168,-96.4998,2.0,178.2040566,24.57206748,-99999.0,'11111222,11111222,99999999' 
TABS,ioos:station:wmo:42045:1,2004-05-03T02:00:00Z,26.2168,-96.4998,2.0,178.6605425,26.52724637,-99999.0,'11111222,11111222,99999999' 
TABS,ioos:station:wmo:42045:1,2004-05-03T02:30:00Z,26.2168,-96.4998,2.0,184.6670511,28.14332248,-99999.0,'11111222,11111222,99999999' 
TABS,ioos:station:wmo:42045:1,2004-05-03T03:00:00Z,26.2168,-96.4998,2.0,188.6204739,30.55520414,-99999.0,'11111222,11111222,99999999' 
TABS,ioos:station:wmo:42045:1,2004-05-03T03:30:00Z,26.2168,-96.4998,2.0,189.3830707,27.41684519,-99999.0,'11111222,11111222,99999999' 
TABS,ioos:station:wmo:42045:1,2004-05-03T04:00:00Z,26.2168,-96.4998,2.0,194.5263932,28.90402913,-99999.0,'11111222,11111222,99999999' 
TABS,ioos:station:wmo:42045:1,2004-05-03T04:30:00Z,26.2168,-96.4998,2.0,202.3715189,26.11562942,-99999.0,'11111222,11111222,99999999' 
TABS,ioos:station:wmo:42045:1,2004-05-03T05:00:00Z,26.2168,-96.4998,2.0,216.1683311,23.85778699,-99999.0,'11111222,11111222,99999999' 
TABS,ioos:station:wmo:42045:1,2004-05-03T05:30:00Z,26.2168,-96.4998,2.0,223.5630523,24.5372472,-99999.0,'11111222,11111222,99999999' 
TABS,ioos:station:wmo:42045:1,2004-05-03T06:00:00Z,26.2168,-96.4998,2.0,223.9695372,24.38498308,-99999.0,'11111222,11111222,99999999' 
TABS,ioos:station:wmo:42045:1,2004-05-03T06:30:00Z,26.2168,-96.4998,2.0,227.1558323,24.8087283,-99999.0,'11111222,11111222,99999999' 
TABS,ioos:station:wmo:42045:1,2004-05-03T07:00:00Z,26.2168,-96.4998,2.0,237.4574889,22.28955361,-99999.0,'11111222,11111222,99999999' 
TABS,ioos:station:wmo:42045:1,2004-05-03T07:30:00Z,26.2168,-96.4998,2.0,242.451934,21.64384901,-99999.0,'11111222,11111222,99999999' 
TABS,ioos:station:wmo:42045:1,2004-05-03T08:00:00Z,26.2168,-96.4998,2.0,250.548743,20.51059482,-99999.0,'11111222,11111222,99999999' 
TABS,ioos:station:wmo:42045:1,2004-05-03T08:30:00Z,26.2168,-96.4998,2.0,260.0541573,19.10712956,-99999.0,'11111222,11111222,99999999' 
TABS,ioos:station:wmo:42045:1,2004-05-03T09:00:00Z,26.2168,-96.4998,2.0,271.3538271,20.74578752,-99999.0,'11111222,11111222,99999999' 
TABS,ioos:station:wmo:42045:1,2004-05-03T09:30:00Z,26.2168,-96.4998,2.0,278.0113867,17.00595484,-99999.0,'11111222,11111222,99999999' 
TABS,ioos:station:wmo:42045:1,2004-05-03T10:00:00Z,26.2168,-96.4998,2.0,279.0956451,18.21906968,-99999.0,'11111222,11111222,99999999' 
TABS,ioos:station:wmo:42045:1,2004-05-03T10:30:00Z,26.2168,-96.4998,2.0,285.1271694,21.53621369,-99999.0,'11111222,11111222,99999999' 
TABS,ioos:station:wmo:42045:1,2004-05-03T11:00:00Z,26.2168,-96.4998,2.0,292.9199222,19.41257325,-99999.0,'11111222,11111222,99999999' 
TABS,ioos:station:wmo:42045:1,2004-05-03T11:30:00Z,26.2168,-96.4998,2.0,300.0574674,15.93249823,-99999.0,'11111222,11111222,99999999' 
TABS,ioos:station:wmo:42045:1,2004-05-03T12:00:00Z,26.2168,-96.4998,2.0,302.6888094,18.40499117,-99999.0,'11111222,11111222,99999999' 
TABS,ioos:station:wmo:42045:1,2004-05-03T12:30:00Z,26.2168,-96.4998,2.0,316.6855404,21.88027651,-99999.0,'11111222,11111222,99999999' 
TABS,ioos:station:wmo:42045:1,2004-05-03T13:00:00Z,26.2168,-96.4998,2.0,325.2882516,21.45921713,-99999.0,'11111222,11111222,99999999' 
TABS,ioos:station:wmo:42045:1,2004-05-03T13:30:00Z,26.2168,-96.4998,2.0,335.4615328,22.51339379,-99999.0,'11111222,11111222,99999999' 
TABS,ioos:station:wmo:42045:1,2004-05-03T14:00:00Z,26.2168,-96.4998,2.0,342.407827,23.22627822,-99999.0,'11111222,11111222,99999999' 
TABS,ioos:station:wmo:42045:1,2004-05-03T14:30:00Z,26.2168,-96.4998,2.0,347.1765854,18.3373744,-99999.0,'11111222,11111222,99999999' 
TABS,ioos:station:wmo:42045:1,2004-05-03T15:00:00Z,26.2168,-96.4998,2.0,353.5376809,20.16815559,-99999.0,'11111222,11111222,99999999' 
TABS,ioos:station:wmo:42045:1,2004-05-03T15:30:00Z,26.2168,-96.4998,2.0,354.5992223,19.33584495,-99999.0,'11111222,11111222,99999999' 
TABS,ioos:station:wmo:42045:1,2004-05-03T16:00:00Z,26.2168,-96.4998,2.0,359.8650795,21.20005896,-99999.0,'11111222,11144222,99999999' 
TABS,ioos:station:wmo:42045:1,2004-05-03T16:30:00Z,26.2168,-96.4998,2.0,4.821973747,20.46241677,-99999.0,'11111222,11111222,99999999' 
TABS,ioos:station:wmo:42045:1,2004-05-03T17:00:00Z,26.2168,-96.4998,2.0,15.0252167,16.16255549,-99999.0,'11111222,11111222,99999999' 
TABS,ioos:station:wmo:42045:1,2004-05-03T17:30:00Z,26.2168,-96.4998,2.0,23.7119896,16.71072709,-99999.0,'11111222,11111222,99999999' 
TABS,ioos:station:wmo:42045:1,2004-05-03T18:00:00Z,26.2168,-96.4998,2.0,39.36530359,16.49163727,-99999.0,'11111222,11111222,99999999' 
TABS,ioos:station:wmo:42045:1,2004-05-03T18:30:00Z,26.2168,-96.4998,2.0,54.19624057,15.26464215,-99999.0,'11111222,11111222,99999999' 
TABS,ioos:station:wmo:42045:1,2004-05-03T19:00:00Z,26.2168,-96.4998,2.0,50.03169629,15.31839417,-99999.0,'11111222,11111222,99999999' 
TABS,ioos:station:wmo:42045:1,2004-05-03T19:30:00Z,26.2168,-96.4998,2.0,62.89677808,13.80609286,-99999.0,'11111222,11111222,99999999' 
TABS,ioos:station:wmo:42045:1,2004-05-03T20:00:00Z,26.2168,-96.4998,2.0,69.32077508,12.51640923,-99999.0,'11111222,11111222,99999999' 
TABS,ioos:station:wmo:42045:1,2004-05-03T20:30:00Z,26.2168,-96.4998,2.0,85.64391448,12.37575048,-99999.0,'11111222,11111222,99999999' 
TABS,ioos:station:wmo:42045:1,2004-05-03T21:00:00Z,26.2168,-96.4998,2.0,81.93084784,11.96849615,-99999.0,'11111222,11111222,99999999' 
TABS,ioos:station:wmo:42045:1,2004-05-03T21:30:00Z,26.2168,-96.4998,2.0,95.03735672,9.908269274,-99999.0,'11133222,11111222,99999999' 
TABS,ioos:station:wmo:42045:1,2004-05-03T22:00:00Z,26.2168,-96.4998,2.0,101.2007716,10.29611577,-99999.0,'11111222,11111222,99999999' 
TABS,ioos:station:wmo:42045:1,2004-05-03T22:30:00Z,26.2168,-96.4998,2.0,119.7448117,8.545993213,-99999.0,'11133222,11111222,99999999' 
TABS,ioos:station:wmo:42045:1,2004-05-03T23:00:00Z,26.2168,-96.4998,2.0,126.5080662,8.236164156,-99999.0,'11133222,11111222,99999999' 
TABS,ioos:station:wmo:42045:1,2004-05-03T23:30:00Z,26.2168,-96.4998,2.0,137.9688079,8.73742525,-99999.0,'11133222,11111222,99999999' 
TABS,ioos:station:wmo:42045:1,2004-05-04T00:00:00Z,26.2168,-96.4998,2.0,152.13874,9.885949626,-99999.0,'11133222,11111222,99999999' 
TABS,ioos:station:wmo:42045:1,2004-05-04T00:30:00Z,26.2168,-96.4998,2.0,168.5864619,10.86485159,-99999.0,'11111222,11111222,99999999' 
TABS,ioos:station:wmo:42045:1,2004-05-04T01:00:00Z,26.2168,-96.4998,2.0,176.2412426,8.237718131,-99999.0,'11133222,11111222,99999999' 
TABS,ioos:station:wmo:42045:1,2004-05-04T01:30:00Z,26.2168,-96.4998,2.0,184.8363617,10.43716437,-99999.0,'11111222,11111222,99999999' 
TABS,ioos:station:wmo:42045:1,2004-05-04T02:00:00Z,26.2168,-96.4998,2.0,192.5526874,10.30636696,-99999.0,'11111222,11111222,99999999' 
TABS,ioos:station:wmo:42045:1,2004-05-04T02:30:00Z,26.2168,-96.4998,2.0,200.7375688,11.80482952,-99999.0,'11111222,11111222,99999999' 
TABS,ioos:station:wmo:42045:1,2004-05-04T03:00:00Z,26.2168,-96.4998,2.0,222.4977208,11.33865953,-99999.0,'11111222,11111222,99999999' 
TABS,ioos:station:wmo:42045:1,2004-05-04T03:30:00Z,26.2168,-96.4998,2.0,228.6555926,13.97258029,-99999.0,'11111222,11111222,99999999' 
TABS,ioos:station:wmo:42045:1,2004-05-04T04:00:00Z,26.2168,-96.4998,2.0,240.1526527,15.31087195,-99999.0,'11111222,11111222,99999999' 
TABS,ioos:station:wmo:42045:1,2004-05-04T04:30:00Z,26.2168,-96.4998,2.0,248.0272622,17.42572811,-99999.0,'11111222,11111222,99999999' 
TABS,ioos:station:wmo:42045:1,2004-05-04T05:00:00Z,26.2168,-96.4998,2.0,251.3041417,16.69067404,-99999.0,'11111222,11111222,99999999' 
TABS,ioos:station:wmo:42045:1,2004-05-04T05:30:00Z,26.2168,-96.4998,2.0,261.7704908,17.18696308,-99999.0,'11111222,11111222,99999999' 
TABS,ioos:station:wmo:42045:1,2004-05-04T06:00:00Z,26.2168,-96.4998,2.0,267.6563896,17.85492929,-99999.0,'11111222,11111222,99999999' 
TABS,ioos:station:wmo:42045:1,2004-05-04T06:30:00Z,26.2168,-96.4998,2.0,279.7010344,19.76257321,-99999.0,'11111222,11111222,99999999' 
TABS,ioos:station:wmo:42045:1,2004-05-04T07:00:00Z,26.2168,-96.4998,2.0,289.0850826,18.96223616,-99999.0,'11111222,11111222,99999999' 
TABS,ioos:station:wmo:42045:1,2004-05-04T07:30:00Z,26.2168,-96.4998,2.0,293.1416577,19.69466171,-99999.0,'11111222,11111222,99999999' 
TABS,ioos:station:wmo:42045:1,2004-05-04T08:00:00Z,26.2168,-96.4998,2.0,297.6289933,19.51529144,-99999.0,'11111222,11111222,99999999' 
TABS,ioos:station:wmo:42045:1,2004-05-04T08:30:00Z,26.2168,-96.4998,2.0,300.6985306,19.9797998,-99999.0,'11111222,11111222,99999999' 
TABS,ioos:station:wmo:42045:1,2004-05-04T09:00:00Z,26.2168,-96.4998,2.0,303.88065,19.2121472,-99999.0,'11111222,11111222,99999999' 
TABS,ioos:station:wmo:42045:1,2004-05-04T09:30:00Z,26.2168,-96.4998,2.0,314.1291776,21.85919715,-99999.0,'11111222,11111222,99999999' 
TABS,ioos:station:wmo:42045:1,2004-05-04T10:00:00Z,26.2168,-96.4998,2.0,319.268199,21.85363128,-99999.0,'11111222,11111222,99999999' 
TABS,ioos:station:wmo:42045:1,2004-05-04T10:30:00Z,26.2168,-96.4998,2.0,325.2194291,21.56233058,-99999.0,'11111222,11111222,99999999' 
TABS,ioos:station:wmo:42045:1,2004-05-04T11:00:00Z,26.2168,-96.4998,2.0,326.7735371,23.32313229,-99999.0,'11111222,11111222,99999999' 
TABS,ioos:station:wmo:42045:1,2004-05-04T11:30:00Z,26.2168,-96.4998,2.0,331.4639744,21.58188361,-99999.0,'11111222,11111222,99999999' 
TABS,ioos:station:wmo:42045:1,2004-05-04T12:00:00Z,26.2168,-96.4998,2.0,326.8134328,22.10565538,-99999.0,'11111222,11111222,99999999' 
TABS,ioos:station:wmo:42045:1,2004-05-04T12:30:00Z,26.2168,-96.4998,2.0,330.6499302,21.0752414,-99999.0,'11111222,11111222,99999999' 
TABS,ioos:station:wmo:42045:1,2004-05-04T13:00:00Z,26.2168,-96.4998,2.0,337.3737403,19.85846167,-99999.0,'11111222,11111222,99999999' 
TABS,ioos:station:wmo:42045:1,2004-05-04T13:30:00Z,26.2168,-96.4998,2.0,343.721689,17.4808009,-99999.0,'11111222,11111222,99999999' 
TABS,ioos:station:wmo:42045:1,2004-05-04T14:00:00Z,26.2168,-96.4998,2.0,352.8372331,22.45525328,-99999.0,'11111222,11111222,99999999' 
TABS,ioos:station:wmo:42045:1,2004-05-04T14:30:00Z,26.2168,-96.4998,2.0,358.9876487,21.50335788,-99999.0,'11111222,11111222,99999999' 
TABS,ioos:station:wmo:42045:1,2004-05-04T15:00:00Z,26.2168,-96.4998,2.0,5.200291643,18.31538151,-99999.0,'11111222,11111222,99999999' 
TABS,ioos:station:wmo:42045:1,2004-05-04T15:30:00Z,26.2168,-96.4998,2.0,8.872468066,18.99731034,-99999.0,'11111222,11111222,99999999' 
TABS,ioos:station:wmo:42045:1,2004-05-04T16:00:00Z,26.2168,-96.4998,2.0,10.62936003,18.4872118,-99999.0,'11111222,11111222,99999999' 
TABS,ioos:station:wmo:42045:1,2004-05-04T16:30:00Z,26.2168,-96.4998,2.0,14.22187054,16.48523279,-99999.0,'11111222,11111222,99999999' 
TABS,ioos:station:wmo:42045:1,2004-05-04T17:00:00Z,26.2168,-96.4998,2.0,13.50840548,16.05411474,-99999.0,'11111222,11111222,99999999' 
TABS,ioos:station:wmo:42045:1,2004-05-04T17:30:00Z,26.2168,-96.4998,2.0,18.53108869,15.10305929,-99999.0,'11111222,11111222,99999999' 